Location: Carnières
(50.1682°N, 3.3474°E)
Time: 22:00:59
(UTC+00:00)

SL-16 R/B - Pass Details

Date: 10 August 2024
Orbit: 842 x 845 km, 71.0° (Epoch: 10 September)

Event Time Altitude Azimuth Distance (km) Brightness Sun altitude
Exits shadow 00:56:54 38° 248° (WSW) 1,279 2.8 -22.8°
Maximum altitude 00:58:51 56° 305° (NW) 1,004 2.6 -22.7°
Drops below altitude 10° 01:04:26 10° 23° (NNE) 2,476 5.8 -22.5°
Sets 01:06:57 0° 28° (NNE) 3,416 6.8 -22.3°
